カタログに戻る

SL-16 DEB

運用中LEO
NORAD 39852·DEBRIS·🇷🇺 Russia

打ち上げ Dec 25, 1992 から Baikonur Cosmodrome

Loading…

次のパス (今後24時間)

TLE

経年Source: Space-Track

元期: Sep 11, 2026, 09:37 UTC

1 39852U 92093LE  26254.40075457  .00002634  00000-0  49424-3 0  9992
2 39852  70.9983 304.3832 0004604 264.8551  95.2073 14.65698563 16122

AllMySatでSL-16 DEBをリアルタイム追跡

Download on the App Store